TK981 LTFM-LWOH

Flight info

Callsign TK981
Flight time 1h 21m
Altitude 43000
Route BARPE UM603 PEREN UN128 FSK UL608 DISOR DCT PEP
Aircraft C700/M-SBDGHM1RWXY/LB2

Departure

Time 2026-05-09 08:50
Airport İstanbul Airport (LTFM)

Arrival

Time 2026-05-09 10:11
Airport Ohrid St. Paul the Apostle Airport (LWOH)
Time Latitude Longitude Altitude Speed Heading
2026-05-09 08:32 41.26358 28.74040 328 ft 0 kts 178°
2026-05-09 08:34 41.26374 28.74039 325 ft 2 kts 174°
2026-05-09 08:34 41.26391 28.74035 327 ft 2 kts 168°
2026-05-09 08:34 41.26406 28.74029 327 ft 2 kts 154°
2026-05-09 08:34 41.26419 28.74015 327 ft 2 kts 101°
2026-05-09 08:35 41.26418 28.74003 328 ft 0 kts 54°
2026-05-09 08:38 41.26420 28.74006 328 ft 2 kts 54°
2026-05-09 08:38 41.26452 28.74027 328 ft 9 kts
2026-05-09 08:38 41.26538 28.74023 327 ft 14 kts 358°
2026-05-09 08:39 41.26647 28.74018 327 ft 17 kts 359°
2026-05-09 08:39 41.26778 28.74021 327 ft 19 kts 359°
2026-05-09 08:39 41.26871 28.74017 328 ft 12 kts 357°
2026-05-09 08:39 41.26958 28.74010 328 ft 12 kts 356°
2026-05-09 08:40 41.27029 28.74006 328 ft 9 kts 336°
2026-05-09 08:40 41.27051 28.73919 328 ft 12 kts 268°
2026-05-09 08:40 41.27045 28.73793 326 ft 15 kts 264°
2026-05-09 08:40 41.27045 28.73642 326 ft 18 kts 272°
2026-05-09 08:41 41.27046 28.73552 328 ft 8 kts 269°
2026-05-09 08:41 41.27044 28.73462 328 ft 11 kts 269°
2026-05-09 08:41 41.27044 28.73344 328 ft 14 kts 269°
2026-05-09 08:41 41.27042 28.73203 328 ft 13 kts 269°
2026-05-09 08:42 41.27062 28.73109 328 ft 12 kts 324°
2026-05-09 08:42 41.27152 28.73100 325 ft 15 kts
2026-05-09 08:42 41.27266 28.73099 327 ft 18 kts 357°
2026-05-09 08:42 41.27400 28.73091 327 ft 21 kts 360°
2026-05-09 08:43 41.27529 28.73090 327 ft 14 kts 359°
2026-05-09 08:43 41.27593 28.73037 328 ft 10 kts 281°
2026-05-09 08:43 41.27638 28.72972 328 ft 12 kts 353°
2026-05-09 08:43 41.27735 28.72968 328 ft 16 kts 359°
2026-05-09 08:44 41.27855 28.72966 327 ft 19 kts 359°
2026-05-09 08:44 41.27996 28.72962 328 ft 22 kts 358°
2026-05-09 08:44 41.28158 28.72960 327 ft 25 kts 359°
2026-05-09 08:44 41.28317 28.72955 327 ft 21 kts 359°
2026-05-09 08:45 41.28455 28.72949 328 ft 16 kts 358°
2026-05-09 08:45 41.28535 28.72948 328 ft 18 kts
2026-05-09 08:45 41.28674 28.72947 326 ft 21 kts 358°
2026-05-09 08:45 41.28890 28.72942 327 ft 25 kts 360°
2026-05-09 08:46 41.29011 28.72940 327 ft 27 kts 359°
2026-05-09 08:46 41.29206 28.72933 326 ft 29 kts 359°
2026-05-09 08:46 41.29371 28.72928 327 ft 9 kts
2026-05-09 08:46 41.29442 28.72928 328 ft 12 kts 358°
2026-05-09 08:47 41.29492 28.72878 328 ft 2 kts 275°
2026-05-09 08:47 41.29493 28.72842 326 ft 6 kts 270°
2026-05-09 08:47 41.29490 28.72745 327 ft 14 kts 268°
2026-05-09 08:47 41.29488 28.72603 328 ft 15 kts 270°
2026-05-09 08:48 41.29487 28.72508 328 ft 10 kts 268°
2026-05-09 08:48 41.29464 28.72464 327 ft 1 kts 184°
2026-05-09 08:48 41.29462 28.72464 328 ft 2 kts 183°
2026-05-09 08:49 41.29398 28.72465 327 ft 22 kts 179°
2026-05-09 08:49 41.29015 28.72472 326 ft 90 kts 179°
2026-05-09 08:49 41.28229 28.72491 508 ft 127 kts 178°
2026-05-09 08:49 41.27262 28.72517 793 ft 150 kts 183°
2026-05-09 08:50 41.26143 28.72514 1009 ft 172 kts 178°
2026-05-09 08:50 41.24881 28.72670 1154 ft 189 kts 180°
2026-05-09 08:50 41.23559 28.72676 1466 ft 193 kts 182°
2026-05-09 08:50 41.22218 28.72721 1916 ft 191 kts 180°
2026-05-09 08:51 41.20870 28.72794 2602 ft 193 kts 182°
2026-05-09 08:51 41.19518 28.72838 3528 ft 195 kts 187°
2026-05-09 08:51 41.18205 28.72417 4447 ft 196 kts 204°
2026-05-09 08:51 41.17034 28.71536 5365 ft 196 kts 219°
2026-05-09 08:52 41.16028 28.70301 6284 ft 198 kts 223°
2026-05-09 08:52 41.14992 28.69076 7131 ft 199 kts 223°
2026-05-09 08:52 41.13956 28.67830 7949 ft 202 kts 224°
2026-05-09 08:52 41.12930 28.66552 8687 ft 205 kts 227°
2026-05-09 08:53 41.12143 28.64976 9489 ft 207 kts 243°
2026-05-09 08:53 41.11673 28.63159 10235 ft 211 kts 256°
2026-05-09 08:53 41.11365 28.61239 10931 ft 214 kts 255°
2026-05-09 08:53 41.11014 28.59309 11611 ft 216 kts 256°
2026-05-09 08:54 41.10678 28.57379 12290 ft 218 kts 257°
2026-05-09 08:54 41.10337 28.55404 12963 ft 220 kts 257°
2026-05-09 08:54 41.09991 28.53409 13659 ft 223 kts 257°
2026-05-09 08:54 41.09645 28.51416 14256 ft 226 kts 257°
2026-05-09 08:55 41.09287 28.49368 14789 ft 228 kts 257°
2026-05-09 08:55 41.08929 28.47308 15265 ft 230 kts 257°
2026-05-09 08:55 41.08565 28.45224 15729 ft 233 kts 257°
2026-05-09 08:55 41.08195 28.43113 16372 ft 237 kts 257°
2026-05-09 08:56 41.07816 28.40940 17217 ft 257 kts 257°
2026-05-09 08:56 41.07388 28.38501 17889 ft 284 kts 257°
2026-05-09 08:56 41.06921 28.35824 18591 ft 312 kts 257°
2026-05-09 08:56 41.06411 28.32935 19174 ft 336 kts 257°
2026-05-09 08:57 41.05875 28.29894 20267 ft 341 kts 257°
2026-05-09 08:57 41.05331 28.26797 21302 ft 347 kts 257°
2026-05-09 08:57 41.04774 28.23646 22316 ft 353 kts 257°
2026-05-09 08:57 41.04216 28.20491 23328 ft 359 kts 257°
2026-05-09 08:58 41.03634 28.17211 24251 ft 364 kts 257°
2026-05-09 08:58 41.03061 28.13980 25178 ft 366 kts 257°
2026-05-09 08:58 41.02475 28.10685 26087 ft 369 kts 258°
2026-05-09 08:58 41.01880 28.07347 26975 ft 373 kts 258°
2026-05-09 08:59 41.01283 28.03997 27849 ft 376 kts 258°
2026-05-09 08:59 41.00676 28.00603 28726 ft 379 kts 258°
2026-05-09 08:59 41.00066 27.97197 29586 ft 382 kts 258°
2026-05-09 08:59 40.99447 27.93747 30378 ft 386 kts 258°
2026-05-09 09:00 40.98821 27.90263 31036 ft 391 kts 258°
2026-05-09 09:00 40.98188 27.86749 31663 ft 395 kts 258°
2026-05-09 09:00 40.97545 27.83189 32303 ft 399 kts 258°
2026-05-09 09:00 40.96895 27.79600 32946 ft 401 kts 258°
2026-05-09 09:01 40.96252 27.76050 33596 ft 403 kts 258°
2026-05-09 09:01 40.95597 27.72442 34228 ft 403 kts 258°
2026-05-09 09:01 40.94941 27.68832 34793 ft 404 kts 258°
2026-05-09 09:01 40.94282 27.65216 35359 ft 404 kts 258°
2026-05-09 09:02 40.93620 27.61594 35917 ft 404 kts 258°
2026-05-09 09:02 40.92959 27.57981 36475 ft 404 kts 257°
2026-05-09 09:02 40.92299 27.54378 37034 ft 403 kts 257°
2026-05-09 09:02 40.91640 27.50786 37594 ft 401 kts 257°
2026-05-09 09:03 40.90977 27.47185 38160 ft 400 kts 257°
2026-05-09 09:03 40.90326 27.43654 38690 ft 398 kts 257°
2026-05-09 09:03 40.89671 27.40104 39101 ft 396 kts 257°
2026-05-09 09:03 40.89069 27.36549 39488 ft 394 kts 262°
2026-05-09 09:04 40.88838 27.32943 39856 ft 393 kts 269°
2026-05-09 09:04 40.88984 27.29381 40213 ft 392 kts 277°
2026-05-09 09:04 40.89402 27.25824 40572 ft 391 kts 278°
2026-05-09 09:04 40.89811 27.22268 40924 ft 390 kts 278°
2026-05-09 09:05 40.90212 27.18718 41267 ft 389 kts 278°
2026-05-09 09:05 40.90622 27.15180 41600 ft 389 kts 278°
2026-05-09 09:05 40.91032 27.11647 41921 ft 388 kts 278°
2026-05-09 09:05 40.91432 27.08156 42233 ft 388 kts 278°
2026-05-09 09:06 40.91836 27.04610 42544 ft 388 kts 278°
2026-05-09 09:06 40.92239 27.01073 42843 ft 388 kts 278°
2026-05-09 09:06 40.92519 26.97568 43035 ft 390 kts 271°
2026-05-09 09:07 40.92171 26.90290 43034 ft 403 kts 266°
2026-05-09 09:07 40.91877 26.85005 43049 ft 412 kts 266°
2026-05-09 09:09 40.91458 26.77912 43048 ft 423 kts 266°
2026-05-09 09:09 40.90995 26.70049 43051 ft 434 kts 266°
2026-05-09 09:10 40.90511 26.61976 43052 ft 445 kts 266°
2026-05-09 09:10 40.90014 26.53767 43049 ft 455 kts 266°
2026-05-09 09:11 40.89499 26.45361 43046 ft 457 kts 266°
2026-05-09 09:11 40.88985 26.37072 43047 ft 452 kts 266°
2026-05-09 09:12 40.88466 26.28793 43042 ft 452 kts 265°
2026-05-09 09:12 40.87810 26.20550 43037 ft 455 kts 263°
2026-05-09 09:13 40.86995 26.12199 43033 ft 457 kts 263°
2026-05-09 09:13 40.86198 26.03880 43024 ft 455 kts 263°
2026-05-09 09:14 40.85388 25.95657 43026 ft 453 kts 263°
2026-05-09 09:14 40.84390 25.87398 43025 ft 455 kts 262°
2026-05-09 09:15 40.83396 25.79123 43026 ft 459 kts 262°
2026-05-09 09:15 40.82371 25.70767 43037 ft 459 kts 262°
2026-05-09 09:16 40.81356 25.62493 43043 ft 457 kts 262°
2026-05-09 09:16 40.79827 25.50137 43049 ft 456 kts 262°
2026-05-09 09:17 40.78790 25.41815 43050 ft 459 kts 262°
2026-05-09 09:17 40.77744 25.33496 43050 ft 461 kts 261°
2026-05-09 09:18 40.76696 25.25203 43046 ft 459 kts 261°
2026-05-09 09:18 40.75643 25.16921 43047 ft 456 kts 261°
2026-05-09 09:19 40.74586 25.08653 43047 ft 456 kts 261°
2026-05-09 09:19 40.73526 25.00416 43043 ft 459 kts 261°
2026-05-09 09:20 40.72444 24.92072 43045 ft 461 kts 261°
2026-05-09 09:20 40.71365 24.83790 43046 ft 459 kts 261°
2026-05-09 09:21 40.70277 24.75487 43047 ft 456 kts 261°
2026-05-09 09:21 40.69198 24.67294 43051 ft 455 kts 261°
2026-05-09 09:22 40.68108 24.59064 43051 ft 458 kts 261°
2026-05-09 09:22 40.67002 24.50763 43054 ft 458 kts 261°
2026-05-09 09:23 40.65900 24.42535 43054 ft 455 kts 261°
2026-05-09 09:23 40.64802 24.34385 43051 ft 453 kts 261°
2026-05-09 09:24 40.63695 24.26213 43044 ft 452 kts 261°
2026-05-09 09:24 40.62602 24.18172 42992 ft 433 kts 261°
2026-05-09 09:25 40.62074 24.14302 42203 ft 429 kts 261°
2026-05-09 09:25 40.61544 24.10422 41250 ft 429 kts 261°
2026-05-09 09:25 40.61063 24.06597 40346 ft 428 kts 264°
2026-05-09 09:25 40.60939 24.02666 39433 ft 426 kts 272°
2026-05-09 09:26 40.61211 23.98776 38469 ft 426 kts 279°
2026-05-09 09:26 40.61872 23.94972 37212 ft 427 kts 286°
2026-05-09 09:26 40.62922 23.91293 35841 ft 432 kts 293°
2026-05-09 09:26 40.64346 23.87821 34484 ft 437 kts 301°
2026-05-09 09:27 40.66076 23.84490 32940 ft 442 kts 303°
2026-05-09 09:27 40.67831 23.81135 31299 ft 446 kts 303°
2026-05-09 09:27 40.69570 23.77763 29545 ft 451 kts 303°
2026-05-09 09:27 40.71340 23.74340 28367 ft 442 kts 303°
2026-05-09 09:28 40.73065 23.71028 27186 ft 431 kts 303°
2026-05-09 09:28 40.74720 23.67835 26020 ft 423 kts 303°
2026-05-09 09:28 40.76359 23.64663 24924 ft 414 kts 302°
2026-05-09 09:28 40.77961 23.61558 23847 ft 406 kts 302°
2026-05-09 09:29 40.79541 23.58499 22679 ft 398 kts 302°
2026-05-09 09:29 40.81086 23.55503 21479 ft 391 kts 302°
2026-05-09 09:29 40.82605 23.52555 20354 ft 384 kts 302°
2026-05-09 09:29 40.84079 23.49691 19300 ft 377 kts 302°
2026-05-09 09:30 40.85542 23.46847 18250 ft 371 kts 302°
2026-05-09 09:30 40.86981 23.44045 17103 ft 365 kts 302°
2026-05-09 09:30 40.88389 23.41299 16555 ft 350 kts 302°
2026-05-09 09:30 40.89782 23.38580 16678 ft 372 kts 302°
2026-05-09 09:31 40.91250 23.35708 16745 ft 385 kts 302°
2026-05-09 09:31 40.92764 23.32759 16756 ft 388 kts 302°
2026-05-09 09:31 40.94294 23.29771 16755 ft 392 kts 302°
2026-05-09 09:32 40.97144 23.24202 17968 ft 338 kts 302°
2026-05-09 09:32 40.98449 23.21633 18789 ft 337 kts 302°
2026-05-09 09:32 40.99766 23.19038 19577 ft 339 kts 302°
2026-05-09 09:32 41.01092 23.16438 20390 ft 343 kts 302°
2026-05-09 09:33 41.02427 23.13821 21216 ft 348 kts 302°
2026-05-09 09:33 41.03791 23.11134 21989 ft 358 kts 302°
2026-05-09 09:33 41.05248 23.08258 22048 ft 392 kts 302°
2026-05-09 09:33 41.06278 23.06224 22058 ft 412 kts 302°
2026-05-09 09:34 41.08442 23.01974 22058 ft 422 kts 302°
2026-05-09 09:34 41.09559 22.99784 22055 ft 424 kts 303°
2026-05-09 09:34 41.11393 22.96777 22060 ft 425 kts 309°
2026-05-09 09:36 41.23844 22.75791 22003 ft 397 kts 293°
2026-05-09 09:36 41.24760 22.72328 21966 ft 395 kts 284°
2026-05-09 09:36 41.25255 22.68781 21931 ft 393 kts 276°
2026-05-09 09:37 41.25509 22.65146 21907 ft 393 kts 275°
2026-05-09 09:37 41.25782 22.61521 21890 ft 394 kts 276°
2026-05-09 09:37 41.26053 22.57939 21865 ft 393 kts 275°
2026-05-09 09:37 41.26316 22.54312 21845 ft 393 kts 275°
2026-05-09 09:38 41.26574 22.50678 21828 ft 394 kts 275°
2026-05-09 09:38 41.26836 22.47093 21810 ft 395 kts 275°
2026-05-09 09:38 41.27102 22.43449 21780 ft 395 kts 275°
2026-05-09 09:38 41.27363 22.39792 21766 ft 394 kts 275°
2026-05-09 09:39 41.27617 22.36210 21753 ft 394 kts 275°
2026-05-09 09:39 41.27877 22.32577 21717 ft 393 kts 275°
2026-05-09 09:39 41.28136 22.28957 21709 ft 393 kts 275°
2026-05-09 09:39 41.28390 22.25326 21714 ft 393 kts 275°
2026-05-09 09:40 41.28644 22.21701 21734 ft 394 kts 275°
2026-05-09 09:40 41.28896 22.18103 21730 ft 395 kts 275°
2026-05-09 09:40 41.29150 22.14460 21747 ft 395 kts 275°
2026-05-09 09:40 41.29404 22.10807 21751 ft 396 kts 275°
2026-05-09 09:41 41.29652 22.07198 21724 ft 396 kts 275°
2026-05-09 09:41 41.29903 22.03541 21710 ft 394 kts 275°
2026-05-09 09:41 41.30151 21.99916 21688 ft 392 kts 275°
2026-05-09 09:41 41.30398 21.96285 21682 ft 394 kts 275°
2026-05-09 09:42 41.30642 21.92686 21658 ft 395 kts 275°
2026-05-09 09:42 41.30887 21.89036 21679 ft 395 kts 275°
2026-05-09 09:42 41.31129 21.85423 21699 ft 396 kts 275°
2026-05-09 09:42 41.31373 21.81773 21689 ft 395 kts 275°
2026-05-09 09:43 41.31617 21.78089 21699 ft 400 kts 275°
2026-05-09 09:43 41.31859 21.74432 21695 ft 394 kts 275°
2026-05-09 09:43 41.32099 21.70793 21711 ft 395 kts 275°
2026-05-09 09:43 41.32335 21.67183 21701 ft 396 kts 275°
2026-05-09 09:44 41.32572 21.63531 21682 ft 395 kts 275°
2026-05-09 09:44 41.32809 21.59884 21668 ft 394 kts 275°
2026-05-09 09:44 41.33040 21.56287 21664 ft 394 kts 275°
2026-05-09 09:44 41.33275 21.52643 21650 ft 396 kts 275°
2026-05-09 09:45 41.33470 21.48965 21631 ft 397 kts 270°
2026-05-09 09:45 41.32955 21.45360 21562 ft 399 kts 250°
2026-05-09 09:45 41.31515 21.42253 21482 ft 402 kts 231°
2026-05-09 09:45 41.29295 21.39953 21412 ft 407 kts 211°
2026-05-09 09:46 41.26607 21.38807 21339 ft 413 kts 191°
2026-05-09 09:46 41.23725 21.38938 21277 ft 419 kts 171°
2026-05-09 09:46 41.21004 21.40291 21186 ft 424 kts 153°
2026-05-09 09:46 41.18678 21.42624 20169 ft 420 kts 134°
2026-05-09 09:47 41.17165 21.45844 19788 ft 400 kts 112°
2026-05-09 09:47 41.16672 21.49299 19667 ft 373 kts 89°
2026-05-09 09:47 41.17133 21.52578 19362 ft 353 kts 68°
2026-05-09 09:47 41.18420 21.55303 18666 ft 346 kts 43°
2026-05-09 09:48 41.20350 21.57066 17997 ft 336 kts 19°
2026-05-09 09:48 41.22587 21.57620 17305 ft 323 kts 355°
2026-05-09 09:48 41.24714 21.56937 16626 ft 314 kts 334°
2026-05-09 09:48 41.26638 21.55598 15967 ft 310 kts 327°
2026-05-09 09:49 41.28483 21.54119 15319 ft 307 kts 326°
2026-05-09 09:49 41.30292 21.52606 14689 ft 305 kts 326°
2026-05-09 09:49 41.32056 21.51105 14074 ft 304 kts 325°
2026-05-09 09:49 41.33788 21.49512 13407 ft 300 kts 316°
2026-05-09 09:50 41.34853 21.47200 12759 ft 293 kts 285°
2026-05-09 09:50 41.34874 21.44530 12154 ft 289 kts 259°
2026-05-09 09:50 41.34387 21.41970 11570 ft 286 kts 255°
2026-05-09 09:50 41.33940 21.39413 10971 ft 283 kts 259°
2026-05-09 09:51 41.33744 21.36820 10405 ft 280 kts 269°
2026-05-09 09:51 41.33837 21.34245 9853 ft 277 kts 274°
2026-05-09 09:51 41.33938 21.31695 9220 ft 275 kts 271°
2026-05-09 09:51 41.33946 21.29157 8621 ft 272 kts 269°
2026-05-09 09:52 41.33951 21.26653 8062 ft 271 kts 270°
2026-05-09 09:52 41.33977 21.24179 7503 ft 269 kts 271°
2026-05-09 09:52 41.34006 21.21721 7334 ft 254 kts 270°
2026-05-09 09:52 41.34026 21.19349 7372 ft 264 kts 270°
2026-05-09 09:53 41.34045 21.16867 7378 ft 269 kts 271°
2026-05-09 09:53 41.34069 21.14380 7377 ft 267 kts 271°
2026-05-09 09:53 41.34094 21.11917 7378 ft 266 kts 271°
2026-05-09 09:53 41.34119 21.09457 7374 ft 265 kts 270°
2026-05-09 09:54 41.34142 21.07003 7383 ft 265 kts 271°
2026-05-09 09:54 41.34165 21.04544 7399 ft 266 kts 271°
2026-05-09 09:54 41.34187 21.02120 7395 ft 265 kts 270°
2026-05-09 09:54 41.34210 20.99659 7402 ft 265 kts 270°
2026-05-09 09:55 41.34227 20.97202 7403 ft 267 kts 270°
2026-05-09 09:55 41.34227 20.94749 7400 ft 257 kts 270°
2026-05-09 09:55 41.34237 20.92439 7384 ft 240 kts 270°
2026-05-09 09:55 41.34252 20.90326 7398 ft 220 kts 271°
2026-05-09 09:56 41.34268 20.88362 7404 ft 207 kts 270°
2026-05-09 09:56 41.34274 20.86419 7403 ft 214 kts 270°
2026-05-09 09:56 41.34283 20.84443 7387 ft 209 kts 270°
2026-05-09 09:56 41.34296 20.82517 6993 ft 213 kts 270°
2026-05-09 09:57 41.34200 20.80581 6630 ft 210 kts 253°
2026-05-09 09:57 41.33294 20.79091 6127 ft 216 kts 210°
2026-05-09 09:57 41.31819 20.78848 5723 ft 221 kts 170°
2026-05-09 09:57 41.30370 20.79529 5350 ft 219 kts 161°
2026-05-09 09:58 41.28937 20.80100 5223 ft 206 kts 170°
2026-05-09 09:58 41.27580 20.80346 5189 ft 187 kts 179°
2026-05-09 09:58 41.26379 20.80308 5016 ft 168 kts 190°
2026-05-09 09:58 41.25258 20.79851 4629 ft 168 kts 205°
2026-05-09 09:59 41.24201 20.79182 4253 ft 167 kts 216°
2026-05-09 09:59 41.23669 20.77943 4193 ft 155 kts 265°
2026-05-09 09:59 41.23397 20.76532 4188 ft 167 kts 235°
2026-05-09 09:59 41.22395 20.75774 4199 ft 170 kts 193°
2026-05-09 10:00 41.21247 20.75505 4209 ft 169 kts 193°
2026-05-09 10:00 41.20105 20.75179 4217 ft 167 kts 194°
2026-05-09 10:00 41.18961 20.74873 4209 ft 167 kts 193°
2026-05-09 10:00 41.17823 20.74571 4213 ft 167 kts 193°
2026-05-09 10:01 41.16670 20.74269 4214 ft 170 kts 194°
2026-05-09 10:01 41.15508 20.73973 4207 ft 169 kts 193°
2026-05-09 10:01 41.14369 20.73685 4206 ft 168 kts 193°
2026-05-09 10:01 41.13219 20.73397 4214 ft 169 kts 193°
2026-05-09 10:02 41.12055 20.73110 4200 ft 170 kts 193°
2026-05-09 10:02 41.10896 20.72819 4204 ft 168 kts 193°
2026-05-09 10:02 41.09750 20.72526 4200 ft 167 kts 192°
2026-05-09 10:02 41.08618 20.72239 4205 ft 168 kts 193°
2026-05-09 10:03 41.07466 20.71942 4209 ft 168 kts 193°
2026-05-09 10:03 41.06310 20.71644 4203 ft 168 kts 193°
2026-05-09 10:03 41.05151 20.71346 4206 ft 169 kts 193°
2026-05-09 10:03 41.04004 20.71054 4201 ft 170 kts 193°
2026-05-09 10:04 41.02838 20.70765 4203 ft 171 kts 193°
2026-05-09 10:04 41.01662 20.70466 4194 ft 171 kts 193°
2026-05-09 10:04 41.00499 20.70168 4197 ft 167 kts 193°
2026-05-09 10:04 40.99368 20.69881 4173 ft 167 kts 193°
2026-05-09 10:05 40.98217 20.69587 4178 ft 167 kts 193°
2026-05-09 10:05 40.97078 20.69302 4173 ft 169 kts 190°
2026-05-09 10:05 40.95946 20.69666 4168 ft 174 kts 143°
2026-05-09 10:05 40.95389 20.71067 4166 ft 178 kts 94°
2026-05-09 10:06 40.95767 20.72569 4162 ft 175 kts 47°
2026-05-09 10:06 40.96818 20.73225 4170 ft 171 kts
2026-05-09 10:06 40.97975 20.72955 4194 ft 169 kts 345°
2026-05-09 10:06 40.99131 20.72626 4194 ft 169 kts 346°
2026-05-09 10:07 41.00295 20.72303 4192 ft 170 kts 346°
2026-05-09 10:07 41.01448 20.71977 4201 ft 169 kts 346°
2026-05-09 10:07 41.02607 20.71649 4203 ft 170 kts 346°
2026-05-09 10:07 41.03751 20.71327 4196 ft 169 kts 346°
2026-05-09 10:08 41.04911 20.71010 4198 ft 170 kts 346°
2026-05-09 10:08 41.06075 20.70682 4203 ft 170 kts 346°
2026-05-09 10:08 41.07232 20.70360 4202 ft 172 kts 346°
2026-05-09 10:08 41.08416 20.70264 4179 ft 174 kts
2026-05-09 10:09 41.09545 20.70722 3979 ft 162 kts 15°
2026-05-09 10:09 41.10598 20.71122 3743 ft 154 kts 15°
2026-05-09 10:09 41.11599 20.71532 3521 ft 150 kts 17°
2026-05-09 10:09 41.12594 20.71964 3296 ft 148 kts 16°
2026-05-09 10:10 41.13571 20.72359 3069 ft 146 kts 18°
2026-05-09 10:10 41.14526 20.72784 2851 ft 147 kts 18°
2026-05-09 10:10 41.15517 20.73176 2632 ft 147 kts 18°
2026-05-09 10:10 41.16458 20.73569 2428 ft 139 kts 22°
2026-05-09 10:11 41.17346 20.73958 2311 ft 128 kts 20°
2026-05-09 10:11 41.17990 20.74233 2305 ft 43 kts 18°
2026-05-09 10:11 41.18266 20.74365 2310 ft 38 kts 18°
2026-05-09 10:11 41.18325 20.74405 2315 ft 1 kts 94°
2026-05-09 10:12 41.18309 20.74425 2311 ft 7 kts 150°
2026-05-09 10:12 41.18254 20.74470 2311 ft 10 kts 156°
2026-05-09 10:12 41.18179 20.74450 2308 ft 12 kts 193°
2026-05-09 10:12 41.18140 20.74469 2310 ft 0 kts 153°